TimeCDT,TemperatureF,Dew PointF,Humidity,Sea Level PressureIn,VisibilityMPH,Wind Direction,Wind SpeedMPH,Gust SpeedMPH,PrecipitationIn,Events,Conditions,WindDirDegrees,DateUTC
12:53 AM,79.0,75.0,88,30.11,10.0,Calm,Calm,-,N/A,,Clear,0,2013-07-30 05:53:00
1:53 AM,78.1,73.9,87,30.09,10.0,SW,4.6,-,N/A,,Clear,220,2013-07-30 06:53:00
2:53 AM,78.1,73.9,87,30.09,10.0,Calm,Calm,-,N/A,,Clear,0,2013-07-30 07:53:00
3:53 AM,77.0,73.9,90,30.10,10.0,SSW,3.5,-,N/A,,Clear,200,2013-07-30 08:53:00
4:53 AM,75.9,73.9,94,30.11,7.0,Calm,Calm,-,N/A,,Clear,0,2013-07-30 09:53:00
5:53 AM,77.0,73.9,90,30.11,10.0,South,3.5,-,N/A,,Clear,180,2013-07-30 10:53:00
6:53 AM,77.0,73.9,90,30.13,7.0,Calm,Calm,-,N/A,,Clear,0,2013-07-30 11:53:00
7:53 AM,80.1,75.9,87,30.14,10.0,Calm,Calm,-,N/A,,Clear,0,2013-07-30 12:53:00
8:53 AM,82.9,75.0,77,30.15,10.0,WSW,5.8,-,N/A,,Clear,250,2013-07-30 13:53:00
9:53 AM,84.9,75.0,72,30.15,10.0,West,6.9,-,N/A,,Partly Cloudy,260,2013-07-30 14:53:00
10:53 AM,87.1,72.0,61,30.15,10.0,West,3.5,-,N/A,,Clear,260,2013-07-30 15:53:00
11:53 AM,89.1,73.0,59,30.15,10.0,Calm,Calm,-,N/A,,Partly Cloudy,0,2013-07-30 16:53:00
12:53 PM,89.1,73.0,59,30.13,10.0,Calm,Calm,-,N/A,,Mostly Cloudy,0,2013-07-30 17:53:00
1:53 PM,91.0,72.0,53,30.11,10.0,Variable,3.5,-,N/A,,Partly Cloudy,0,2013-07-30 18:53:00
2:53 PM,93.0,72.0,50,30.09,10.0,WSW,6.9,-,N/A,,Scattered Clouds,240,2013-07-30 19:53:00
3:53 PM,93.0,71.1,49,30.08,10.0,South,4.6,-,N/A,,Scattered Clouds,190,2013-07-30 20:53:00
4:53 PM,91.9,72.0,52,30.07,10.0,SSW,8.1,-,N/A,,Clear,210,2013-07-30 21:53:00
5:53 PM,91.9,72.0,52,30.06,10.0,SSW,6.9,-,N/A,,Mostly Cloudy,200,2013-07-30 22:53:00
6:53 PM,90.0,73.9,59,30.06,10.0,South,8.1,-,N/A,,Partly Cloudy,190,2013-07-30 23:53:00
7:53 PM,87.1,73.0,63,30.06,10.0,WSW,11.5,-,N/A,,Partly Cloudy,250,2013-07-31 00:53:00
8:53 PM,84.0,73.0,69,30.07,10.0,SSW,5.8,-,N/A,,Clear,210,2013-07-31 01:53:00
9:53 PM,82.0,73.0,74,30.08,10.0,SSW,6.9,-,N/A,,Clear,210,2013-07-31 02:53:00
10:53 PM,81.0,72.0,74,30.09,10.0,SSW,5.8,-,N/A,,Clear,210,2013-07-31 03:53:00
11:53 PM,80.1,72.0,76,30.08,10.0,SSW,5.8,-,N/A,,Clear,200,2013-07-31 04:53:00